Shawano, WI

8:35 AM CDT on March 29, 2017 (GMT -0500)
Shawano

Weather History for KEZS - November, 2012

Change the Weather History Date:

Sunday, November 4, 2012

  Actual Average (KCLI) Record (KCLI)
Temperature  
Mean Temperature 32 °F -  
Max Temperature 41 °F 47 °F 73 °F (1978)
Min Temperature 23 °F 29 °F 11 °F (1991)
Degree Days  
Heating Degree Days 33    
Moisture  
Dew Point 24 °F    
Average Humidity 75    
Maximum Humidity 93    
Minimum Humidity 49    
Precipitation  
Precipitation 0.00 in - - ()
Sea Level Pressure  
Sea Level Pressure 30.24 in    
Wind  
Wind Speed 1 mph (NE)    
Max Wind Speed 9 mph    
Max Gust Speed -    
Visibility 10 miles    
Events      
Averages and records for this station are not official NWS values.
T = Trace of Precipitation, MM = Missing Value Source: NWS Daily Summary

Daily Weather History Graph

Daily Weather History Graph

Search for Another Location

Airport or City:

Trip Planner

Search our weather history database for the weather conditions in past years. The results will help you decide how hot, cold, wet, or windy it might be!

Date:

Astronomy

Nov. 04, 2012 Rise Set
Actual Time 6:37 AM CST 4:37 PM CST
Civil Twilight 6:06 AM CST 5:08 PM CST
Nautical Twilight 5:31 AM CST 5:43 PM CST
Astronomical Twilight 4:57 AM CST 6:17 PM CST
Moon 9:13 PM CST (11/4) 11:23 AM CST (11/4)
Length of Visible Light 11h 02m
Length of Day
10h 00m
Waning Gibbous, 72% of the Moon is Illuminated
Nov 4
Waning Gibbous
Nov 6
Last Quarter
Nov 13
New
Nov 20
First Quarter
Nov 28
Full

Hourly Weather History & Observations

Time (CST) Temp. Windchill Dew Point Humidity Pressure Visibility Wind Dir Wind Speed Gust Speed Precip Events Conditions
12:15 AM 28.4 °F - 24.8 °F 86% 30.25 in 10.0 mi Calm Calm - N/A   Clear
12:35 AM 28.4 °F - 23.0 °F 80% 30.25 in 10.0 mi Calm Calm - N/A   Clear
12:55 AM 26.6 °F - 23.0 °F 86% 30.25 in 10.0 mi Calm Calm - N/A   Clear
1:15 AM 30.2 °F - 26.6 °F 86% 30.25 in 10.0 mi Calm Calm - N/A   Clear
1:35 AM 30.2 °F - 24.8 °F 80% 30.25 in 10.0 mi Calm Calm - N/A   Clear
1:55 AM 30.2 °F - 24.8 °F 80% 30.25 in 10.0 mi Calm Calm - N/A   Clear
1:15 AM 30.2 °F 26.7 °F 26.6 °F 86% 30.25 in 10.0 mi NNE 3.5 mph - N/A   Clear
1:35 AM 30.2 °F 26.7 °F 24.8 °F 80% 30.25 in 10.0 mi NNE 3.5 mph - N/A   Clear
1:55 AM 30.2 °F - 26.6 °F 86% 30.26 in 10.0 mi Calm Calm - N/A   Clear
2:15 AM 30.2 °F - 24.8 °F 80% 30.26 in 10.0 mi Calm Calm - N/A   Clear
2:35 AM 28.4 °F - 24.8 °F 86% 30.25 in 10.0 mi Calm Calm - N/A   Clear
2:55 AM 26.6 °F - 23.0 °F 86% 30.25 in 10.0 mi Calm Calm - N/A   Clear
3:15 AM 28.4 °F - 23.0 °F 80% 30.26 in 10.0 mi Calm Calm - N/A   Clear
3:35 AM 24.8 °F - 21.2 °F 86% 30.26 in 10.0 mi Calm Calm - N/A   Clear
3:55 AM 26.6 °F - 23.0 °F 86% 30.26 in 10.0 mi Calm Calm - N/A   Clear
4:15 AM 28.4 °F - 24.8 °F 86% 30.26 in 10.0 mi Calm Calm - N/A   Clear
4:35 AM 24.8 °F - 21.2 °F 86% 30.27 in 10.0 mi Calm Calm - N/A   Clear
4:55 AM 26.6 °F - 23.0 °F 86% 30.26 in 10.0 mi Calm Calm - N/A   Clear
5:15 AM 26.6 °F - 23.0 °F 86% 30.26 in 10.0 mi Calm Calm - N/A   Clear
5:35 AM 24.8 °F - 23.0 °F 93% 30.26 in 10.0 mi Calm Calm - N/A   Clear
6:15 AM 24.8 °F - 23.0 °F 93% 30.27 in 10.0 mi Calm Calm - N/A   Clear
6:35 AM 24.8 °F - 23.0 °F 93% 30.27 in 10.0 mi Calm Calm - N/A   Clear
6:55 AM 23.0 °F - 21.2 °F 93% 30.27 in 10.0 mi Calm Calm - N/A   Clear
7:15 AM 23.0 °F - 21.2 °F 93% 30.28 in 10.0 mi Calm Calm - N/A   Clear
7:35 AM 26.6 °F - 23.0 °F 86% 30.28 in 10.0 mi Calm Calm - N/A   Clear
7:55 AM 28.4 °F - 26.6 °F 93% 30.29 in 10.0 mi Calm Calm - N/A   Clear
8:15 AM 30.2 °F - 26.6 °F 86% 30.28 in 10.0 mi Calm Calm - N/A   Clear
8:35 AM 32.0 °F - 28.4 °F 87% 30.28 in 10.0 mi Calm Calm - N/A   Clear
8:55 AM 33.8 °F 27.7 °F 28.4 °F 81% 30.28 in 10.0 mi NE 6.9 mph - N/A   Clear
9:15 AM 33.8 °F 27.0 °F 28.4 °F 81% 30.27 in 10.0 mi NNE 8.1 mph - N/A   Clear
9:35 AM 35.6 °F 28.6 °F 28.4 °F 75% 30.27 in 10.0 mi North 9.2 mph - N/A   Clear
9:55 AM 35.6 °F 30.7 °F 26.6 °F 70% 30.27 in 10.0 mi North 5.8 mph - N/A   Scattered Clouds
10:15 AM 35.6 °F 30.7 °F 26.6 °F 70% 30.27 in 10.0 mi NE 5.8 mph - N/A   Clear
10:35 AM 35.6 °F 32.8 °F 26.6 °F 70% 30.27 in 10.0 mi North 3.5 mph - N/A   Mostly Cloudy
10:55 AM 35.6 °F 29.2 °F 26.6 °F 70% 30.26 in 10.0 mi North 8.1 mph - N/A   Mostly Cloudy
11:15 AM 37.4 °F 34.9 °F 26.6 °F 65% 30.26 in 10.0 mi NE 3.5 mph - N/A   Overcast
11:35 AM 37.4 °F 32.1 °F 26.6 °F 65% 30.25 in 10.0 mi NNE 6.9 mph - N/A   Mostly Cloudy
11:55 AM 37.4 °F 33.8 °F 26.6 °F 65% 30.25 in 10.0 mi NE 4.6 mph - N/A   Scattered Clouds
12:15 PM 37.4 °F 34.9 °F 26.6 °F 65% 30.25 in 10.0 mi NE 3.5 mph - N/A   Scattered Clouds
12:35 PM 39.2 °F 35.0 °F 26.6 °F 61% 30.24 in 10.0 mi North 5.8 mph - N/A   Scattered Clouds
12:55 PM 39.2 °F 35.9 °F 24.8 °F 56% 30.24 in 10.0 mi ENE 4.6 mph - N/A   Clear
1:15 PM 39.2 °F 37.0 °F 23.0 °F 52% 30.22 in 10.0 mi East 3.5 mph - N/A   Clear
1:35 PM 39.2 °F 35.9 °F 24.8 °F 56% 30.22 in 10.0 mi East 4.6 mph - N/A   Clear
1:55 PM 41.0 °F 39.0 °F 23.0 °F 49% 30.22 in 10.0 mi NE 3.5 mph - N/A   Clear
2:15 PM 41.0 °F 39.0 °F 23.0 °F 49% 30.22 in 10.0 mi East 3.5 mph - N/A   Clear
2:35 PM 41.0 °F 39.0 °F 23.0 °F 49% 30.22 in 10.0 mi East 3.5 mph - N/A   Clear
2:55 PM 41.0 °F 39.0 °F 23.0 °F 49% 30.21 in 10.0 mi ENE 3.5 mph - N/A   Clear
3:15 PM 41.0 °F 39.0 °F 23.0 °F 49% 30.21 in 10.0 mi East 3.5 mph - N/A   Clear
3:35 PM 41.0 °F - 23.0 °F 49% 30.21 in 10.0 mi Calm Calm - N/A   Clear
3:55 PM 39.2 °F 37.0 °F 23.0 °F 52% 30.21 in 10.0 mi East 3.5 mph - N/A   Clear
4:15 PM 37.4 °F - 23.0 °F 56% 30.21 in 10.0 mi Calm Calm - N/A   Clear
4:35 PM 35.6 °F - 23.0 °F 60% 30.21 in 10.0 mi Calm Calm - N/A   Clear
4:55 PM 33.8 °F - 23.0 °F 65% 30.21 in 10.0 mi Calm Calm - N/A   Clear
5:15 PM 33.8 °F - 23.0 °F 65% 30.21 in 10.0 mi Calm Calm - N/A   Clear
5:35 PM 32.0 °F - 23.0 °F 69% 30.22 in 10.0 mi Calm Calm - N/A   Clear
5:55 PM 32.0 °F - 23.0 °F 69% 30.22 in 10.0 mi Calm Calm - N/A   Clear
6:15 PM 32.0 °F - 23.0 °F 69% 30.22 in 10.0 mi Calm Calm - N/A   Clear
6:35 PM 32.0 °F - 23.0 °F 69% 30.22 in 10.0 mi Calm Calm - N/A   Clear
6:55 PM 28.4 °F - 21.2 °F 74% 30.23 in 10.0 mi Calm Calm - N/A   Clear
7:15 PM 28.4 °F - 23.0 °F 80% 30.23 in 10.0 mi Calm Calm - N/A   Clear
7:35 PM 28.4 °F - 23.0 °F 80% 30.23 in 10.0 mi Calm Calm - N/A   Clear
7:55 PM 30.2 °F - 23.0 °F 75% 30.23 in 10.0 mi Calm Calm - N/A   Clear
8:15 PM 28.4 °F - 23.0 °F 80% 30.23 in 10.0 mi Calm Calm - N/A   Clear
8:35 PM 28.4 °F - 23.0 °F 80% 30.23 in 10.0 mi Calm Calm - N/A   Clear
8:55 PM 26.6 °F - 23.0 °F 86% 30.23 in 10.0 mi Calm Calm - N/A   Clear
9:15 PM 28.4 °F - 23.0 °F 80% 30.23 in 10.0 mi Calm Calm - N/A   Clear
9:35 PM 26.6 °F - 21.2 °F 80% 30.23 in 10.0 mi Calm Calm - N/A   Clear
9:55 PM 26.6 °F - 23.0 °F 86% 30.24 in 10.0 mi Calm Calm - N/A   Clear
10:15 PM 26.6 °F - 23.0 °F 86% 30.23 in 10.0 mi Calm Calm - N/A   Clear
10:35 PM 26.6 °F - 23.0 °F 86% 30.23 in 10.0 mi Calm Calm - N/A   Clear
10:55 PM 26.6 °F - 23.0 °F 86% 30.24 in 10.0 mi Calm Calm - N/A   Clear